AMC-15

Last updated on Sat Dec 13 2025 00:02:46 GMT+0000 (Coordinated Universal Time)

1 28446U 04041A 25346.25556566 -.00000079 00000+0 00000+0 0 9998 2 28446 0.0305 43.0657 0002450 228.0886 157.0060 1.00271560 77425
UTC large
Height (km)
Speed (km/s)
/
Latitude / Longitude
Inclination (degrees)
Orbital Period (minutes)
Azimuth
Elevation
Range (km)
Doppler Factor

Next 0 passes for location: London (51.5072 / 0.1276)

Sorry there are no passes over London.